Location: Bolk�w
(51.3188°N, 18.6255°E)
Time: 14:00:57
(UTC+00:00)

Daily predictions for brighter satellites

Satellite Brightness Start Highest point End
(mag) Time Altitude Azimuth Time Altitude Azimuth Time Altitude Azimuth
Cosmos 2181 Rocket 4.5 19:36:22 10° N 19:42:33 49° ENE 19:48:34 10° SSE
Spot 2 Rocket 3.6 19:38:16 10° SSE 19:43:21 89° ENE 19:48:31 10° NNW
Cosmos 1745 Rocket 4.1 19:42:18 10° S 19:48:31 89° WNW 19:54:51 10° N
Landsat 7 3.9 19:44:22 10° SSE 19:49:08 88° WSW 19:53:57 10° NNW
USA 267 3.5 19:49:05 10° ESE 19:55:38 74° NNE 20:02:11 10° WNW
SPOT 1/Viking Rocket 3.6 19:52:22 10° SSE 19:57:32 89° W 20:02:44 10° NNW
Alouette 2 Rocket 3.6 19:56:34 10° NNW 20:00:17 81° WSW 20:05:07 10° S
Cosmos 1953 Rocket 3.7 19:57:28 10° S 20:01:40 53° E 20:05:54 10° NNE
Cosmos 2322 Rocket 3.0 19:57:59 10° SW 20:03:31 57° NW 20:09:05 10° NNE
NOSS 7 (D) 3.7 20:02:42 10° SW 20:05:29 89° NW 20:08:09 10° NE
Cosmos 2237 4.3 20:00:24 10° SSW 20:06:09 87° WNW 20:11:57 10° NNE
Cosmos 2084 3.6 20:02:36 10° NW 20:07:05 78° NE 20:11:32 10° SE
Cosmos 1842 Rocket 4.3 20:03:50 10° N 20:07:56 38° ENE 20:11:52 11° SE
Cosmos 1328 3.8 20:04:04 10° S 20:08:01 90° SSW 20:12:02 10° N
SAR-Lupe-2 3.6 20:05:15 10° NNE 20:08:50 64° ESE 20:12:23 10° S
Cosmos 1455 3.7 20:07:42 10° NNW 20:11:13 34° W 20:14:42 10° SSW
Cosmos 1825 Rocket 3.8 20:12:58 10° SSW 20:17:24 75° W 20:21:54 10° N
ATLAS CENTAUR R/B 1.0 20:15:19 10° NW 20:19:03 88° SW 20:22:16 13° SE
Cosmos 1703 3.9 20:18:11 10° SSW 20:22:00 57° WNW 20:25:51 10° N
COSMOS 2428 3.0 20:17:54 10° S 20:23:18 46° ESE 20:28:42 10° NE
Cosmos 1844 4.4 20:18:12 10° NW 20:23:46 50° WSW 20:29:15 10° S
NOSS 3-4 (A) 4.2 20:17:24 10° NW 20:24:04 59° NE 20:31:28 10° ESE
NOSS 3-4 (C) 4.3 20:17:30 10° NW 20:24:10 59° NE 20:31:35 10° ESE
SL-24 R/B - RUBIN 2 4.5 20:20:13 10° SSW 20:26:18 71° SE 20:32:57 10° NE
Cosmos 2322 3.7 20:21:27 10° SSW 20:27:10 76° ESE 20:32:55 10° NNE
Meteor 1-27 4.3 20:24:25 10° NNW 20:30:11 89° ENE 20:35:46 11° S
Cosmos 1869 3.7 20:26:45 10° N 20:30:37 49° ENE 20:33:50 14° SSE
Cosmos 1709 Rocket 4.3 20:27:19 10° SSW 20:33:38 76° WNW 20:40:02 10° N
NOSS 3-3 (A) 4.1 20:30:06 10° SSW 20:35:47 53° ESE 20:42:13 10° NE
NOSS 3-3 (C) 4.1 20:30:12 10° SSW 20:35:54 52° ESE 20:42:21 10° NE
Terra 1.8 20:31:41 12° SSE 20:36:06 88° WSW 20:40:54 10° NNW
Cosmos 2237 Rocket 3.3 20:33:12 13° SSE 20:37:07 26° ESE 20:41:45 10° NE
CARTOSAT-1 4.1 20:33:06 10° S 20:37:20 55° W 20:41:36 10° NNW
Atlas Centaur 2 4.4 20:35:49 10° SSW 20:37:32 11° S 20:38:46 11° S
Cosmos 2333 4.2 20:33:19 10° SSW 20:38:58 87° ESE 20:44:44 10° NNE
Cosmos 2219 Rocket 2.2 20:33:48 10° SSW 20:39:19 66° ESE 20:44:54 10° NE
Cosmos 2360 Rocket 3.0 20:35:52 10° SW 20:41:25 55° NW 20:47:01 10° NNE
Cosmos 1538 Rocket 4.1 20:36:46 10° SSW 20:42:06 69° ESE 20:47:24 10° NNE
Cosmos 2184 Rocket 4.2 20:42:25 12° S 20:48:12 61° E 20:54:25 10° NNE
Meteor 2-2 Rocket 4.3 20:42:24 10° N 20:48:16 77° ENE 20:53:04 15° SSE
Cosmos 2333 Rocket 2.2 20:43:27 10° SSW 20:49:08 81° ESE 20:54:54 10° NNE
Cosmos 1315 Rocket 3.3 20:46:38 10° NNW 20:50:40 58° W 20:54:13 13° S
ATLAS 2AS CENTAUR R/B 3.1 20:44:23 10° NW 20:52:09 72° NE 20:59:01 11° SE
Resurs 01 Rocket 4.4 20:51:48 10° WSW 20:53:03 11° W 20:54:19 10° WNW
Cosmos 1818 4.4 20:51:37 10° WSW 20:56:57 56° NW 21:02:20 10° NE
Cosmos 2221 2.6 20:54:44 10° NNW 20:59:09 84° W 21:02:29 17° S
Cosmos 773 Rocket 4.5 20:53:54 10° SW 20:59:10 64° WNW 21:04:27 10° NNE
GEOS 3 Rocket 4.1 20:56:05 10° NE 21:01:27 69° NW 21:06:49 10° WSW
ERS-1 Rocket 4.1 20:57:16 10° SSW 21:01:56 37° W 21:06:37 10° NNW
USA 215 3.2 20:58:06 10° ENE 21:04:40 69° SE 21:11:11 10° SW
Iridium 2 4.5 21:01:39 10° N 21:05:17 39° ENE 21:07:33 20° SE
EO 1 Del DPAF 4.3 21:04:58 10° NE 21:08:17 28° E 21:10:00 20° SE
Cosmos 2278 Rocket 2.3 21:03:13 10° NNW 21:08:54 76° WSW 21:13:09 18° SSE
Cosmos 1892 2.8 21:07:01 20° S 21:09:27 57° E 21:13:12 10° NNE
ATLAS 5 CENTAUR R/B 2.8 21:09:28 10° WSW 21:13:39 47° NW 21:18:26 10° NE
Cosmos 1606 4.3 21:11:40 10° NNE 21:14:55 25° ENE 21:17:19 14° ESE
Aureole 2 Rocket 3.7 21:12:58 10° N 21:15:20 24° ENE 21:17:00 15° ESE
Cosmos 158 Rocket 4.3 21:13:11 19° SSE 21:16:18 42° ESE 21:20:56 10° NE
Cosmos 1943 Rocket 3.8 21:11:55 10° NNW 21:16:51 29° NE 21:21:45 10° ESE
SPOT 5 4.4 21:14:18 10° SSW 21:18:43 30° W 21:22:57 10° NNW
SL-16 R/B 3.6 21:18:56 16° SE 21:21:29 22° ESE 21:25:46 10° NE
Lacrosse 5 rocket 2.8 21:18:28 10° WNW 21:22:21 37° N 21:26:02 10° ENE
Spot 4 3.9 21:20:00 20° SSE 21:23:17 72° ENE 21:28:03 10° N
Cosmos 2056 Rocket 3.8 21:18:17 10° NNW 21:23:41 67° ENE 21:27:39 19° SE
Nadezhda 3 Rocket 4.1 21:17:58 10° N 21:24:23 88° ENE 21:29:11 19° S
Cosmos 2058 2.9 21:25:00 19° S 21:27:57 89° ESE 21:32:08 10° N
Cosmos 2154 Rocket 4.0 21:23:03 17° S 21:28:02 77° E 21:34:16 10° NNE
Cosmos 1408 2.6 21:29:05 26° S 21:30:56 61° E 21:34:29 10° NNE
Cosmos 2341 Rocket 4.4 21:26:53 19° SSE 21:31:07 48° E 21:37:03 10° NNE
Meteor 2-17 Rocket 4.5 21:27:25 13° SSW 21:32:52 81° W 21:38:58 10° N
In-Cosmos 22 Rocket 4.1 21:29:55 15° SSW 21:34:26 82° WNW 21:39:48 10° NNE
Cosmos 2074 Rocket 4.3 21:29:16 10° SSW 21:35:27 65° WNW 21:41:40 10° N
USA 267 3.5 21:34:05 19° SSE 21:38:51 53° SW 21:45:16 10° WNW
Cosmos 1076 Rocket 3.5 21:36:09 19° SSW 21:39:11 80° W 21:43:29 10° N
Cosmos 1680 Rocket 3.5 21:35:42 17° SSW 21:39:53 73° ESE 21:45:13 10° NNE
CZ-4C R/B 3.9 21:39:14 10° NW 21:45:33 44° NNE 21:52:58 10° E
EO 1 Delta rocket 4.2 21:43:32 10° NNE 21:48:32 80° E 21:52:51 19° S
COSMOS 2455 3.6 21:43:20 10° NNW 21:49:14 51° NE 21:55:06 10° ESE
Cosmos 2151 3.1 21:47:18 26° SSE 21:49:37 61° E 21:53:50 10° NNE
SL-8 Rocket 4.4 21:46:21 21° SSE 21:50:19 50° E 21:56:14 10° NNE
Cosmos 1452 Rocket 4.3 21:45:35 10° NNW 21:50:40 45° ENE 21:54:48 15° SE
Helios 1A 4.2 21:48:16 17° ESE 21:50:58 34° ENE 21:54:45 10° N
ATLAS CENTAUR R/B 3.5 21:56:12 10° W 21:57:16 11° WSW 21:58:19 10° SW
Cosmos 923 Rocket 4.3 21:52:20 10° SW 21:57:29 68° WNW 22:02:47 10° NNE
Cosmos 1825 2.1 21:58:08 28° S 22:00:04 89° E 22:03:53 10° N
Cosmos 1933 3.7 21:56:23 10° N 22:00:22 54° ENE 22:02:24 26° SE
ALOS 2 2.6 21:58:03 26° SSE 22:00:31 82° ENE 22:04:56 10° NNW
Cosmos 1151 Rocket 3.3 21:56:34 10° N 22:00:54 61° ENE 22:03:13 26° SSE
Cosmos 1340 3.8 21:59:38 23° SE 22:00:59 30° E 22:04:18 10° NNE
Cosmos 2369 Rocket 3.4 21:56:09 10° NNW 22:01:22 38° NE 22:06:34 10° ESE
Cosmos 1980 3.8 21:56:55 11° SSW 22:02:24 80° WNW 22:08:06 10° NNE
APEX 3.5 22:01:19 10° NNW 22:03:56 37° NE 22:05:07 24° ESE
Cosmos 44 3.6 22:05:15 28° SSE 22:06:49 38° ESE 22:10:56 10° NE
COSMOS 2428 4.0 22:02:22 10° WSW 22:07:41 40° NW 22:13:02 10° NNE
Cosmos 371 Rocket 3.4 22:03:53 10° NNW 22:08:47 74° ENE 22:11:47 23° SE
GP-B 3.1 22:04:36 10° N 22:09:04 71° E 22:11:23 28° S
Cosmos 1624 Rocket 4.4 22:08:59 10° NNW 22:14:04 52° WSW 22:16:57 24° S
Terra 4.2 22:12:18 10° WSW 22:14:35 13° W 22:16:52 10° WNW
NOSS 0 Rocket 4.3 22:08:51 10° SW 22:14:57 63° NW 22:21:08 10° NNE
NOSS 3-4 (A) 4.2 22:08:24 10° NW 22:15:03 49° WSW 22:19:46 22° S
NOSS 3-4 (C) 4.2 22:08:30 10° NW 22:15:10 49° WSW 22:19:55 22° S
Helios 1B rocket 4.5 22:14:45 10° NE 22:17:22 16° E 22:19:04 13° ESE
Nimbus 7 Rocket 4.4 22:12:22 10° NNE 22:18:22 82° ESE 22:22:22 22° SSW
SL-4 R/B 0.7 22:19:54 58° NE 22:19:54 58° NE 22:21:49 10° N
Cosmos 2237 Rocket 2.6 22:15:05 10° SW 22:20:44 65° WNW 22:26:28 10° NNE
Genesis I 3.2 22:18:36 18° SW 22:21:27 85° NW 22:25:22 10° NE
Cosmos 1782 3.7 22:17:44 10° N 22:21:30 40° ENE 22:23:34 22° SE
IRIDIUM 106 4.3 22:19:31 25° S 22:22:35 78° E 22:27:49 10° N
CREW DRAGON DEMO-1 DEB 3.2 22:22:53 42° SE 22:22:53 42° SE 22:25:39 10° E
Cosmos 2344 3.5 22:16:09 10° SW 22:23:34 77° SE 22:31:52 10° NE
Cosmos 2219 Rocket 4.0 22:18:50 10° WSW 22:23:44 30° NW 22:28:40 10° NNE
Thor Agena Rocket 4.2 22:24:10 10° N 22:29:07 49° WNW 22:33:18 14° SW
Cosmos 1346 Rocket 3.6 22:28:04 27° SE 22:29:35 38° E 22:33:15 10° NNE
Cosmos 2333 Rocket 4.3 22:29:17 10° W 22:34:04 27° NW 22:38:55 10° NNE
RESURS DK-1 3.6 22:35:47 10° NNW 22:39:42 39° NE 22:43:23 11° ESE
Cosmos 1515 Rocket 3.5 22:36:43 10° N 22:41:05 88° E 22:43:15 29° S
BREEZE-M DEB (TANK) 3.2 22:39:51 10° W 22:41:21 19° WSW 22:41:21 19° WSW
EP 3 4.3 22:42:47 52° N 22:42:47 52° N 22:44:29 10° NE
ATLAS 2AS CENTAUR R/B 3.6 22:35:57 10° NW 22:42:40 37° WSW 22:46:25 22° SSW
Cosmos 1766 Rocket 4.0 22:44:24 24° SSW 22:46:54 56° WNW 22:51:17 10° N
USA 215 3.7 22:41:12 10° ENE 22:47:42 64° NNW 22:54:09 10° W
Cosmos 1328 Rocket 4.0 22:44:14 10° NNW 22:48:24 49° W 22:50:25 27° SSW
Aureole 2 Rocket 3.7 22:46:39 10° NW 22:48:51 20° WSW 22:48:59 20° WSW
Okean 3 Rocket 4.3 22:47:02 21° SW 22:49:46 47° WNW 22:54:05 10° N
Gbstr 26 Del rocket 3.5 22:49:28 31° SSE 22:49:52 32° SE 22:53:38 10° E
Cosmos 1606 3.9 22:47:11 10° NNW 22:50:42 33° W 22:52:19 23° SW
Cosmos 2278 Rocket 4.3 22:49:08 10° WNW 22:52:01 14° W 22:54:53 10° SW
Cosmos 2297 4.3 22:48:53 10° NW 22:54:17 42° WSW 22:57:11 24° SSW
Cosmos 304 Rocket 3.7 22:50:21 10° NNW 22:55:14 88° WSW 22:58:03 25° SSE
Cosmos 2218 Rocket 4.2 22:50:54 22° SSW 22:55:14 73° WNW 23:01:34 10° N
Cosmos 2228 Rocket 3.3 22:52:09 10° N 22:56:47 73° ENE 22:59:19 26° SSE
Cosmos 1943 4.4 22:56:06 19° SSE 22:58:56 30° ESE 23:03:46 10° NE
ATLAS 5 CENTAUR R/B 4.5 22:55:46 10° WNW 22:59:28 22° N 23:03:37 10° NE
Cosmos 2366 rocket 4.2 22:56:35 21° SSW 23:00:56 70° WNW 23:07:18 10° N
Cosmos 1943 Rocket 2.2 22:55:28 10° NNW 23:01:09 71° WSW 23:04:40 24° SSE
Lacrosse 5 rocket 1.2 22:57:53 10° WNW 23:01:56 78° NNE 23:05:43 10° ESE
Landsat 4 3.7 22:58:35 10° NNE 23:02:23 76° ESE 23:03:59 33° S
Cosmos 1633 2.5 23:01:11 36° S 23:02:34 85° E 23:06:13 10° NNE
SL-16 R/B 2.3 23:00:46 18° SW 23:05:01 75° WNW 23:10:46 10° NNE
Cosmos 1821 Rocket 4.1 23:05:52 23° S 23:09:46 65° E 23:15:48 10° NNE
YAOGAN 11 4.5 23:09:09 28° SSW 23:11:10 52° W 23:15:31 10° NNW
Cosmos 1743 Rocket 3.5 23:12:36 29° S 23:14:45 88° WNW 23:19:08 10° N
Sich 1 4.0 23:15:28 21° SE 23:17:47 36° E 23:21:47 10° NNE
Cosmos 332 Rocket 4.5 23:14:53 10° NW 23:19:21 39° WSW 23:21:28 25° SSW
Cosmos 1331 Rocket 4.0 23:14:24 10° NNW 23:19:46 84° ENE 23:23:39 19° SSE
Cosmos 1048 Rocket 4.0 23:19:32 25° SSW 23:22:40 78° ESE 23:27:57 10° NNE
Meteor 2-3 Rocket 4.2 23:21:02 20° SW 23:24:52 55° WNW 23:30:30 10° N
Helios 1A 4.2 23:24:53 22° SW 23:26:33 29° W 23:30:14 10° NW
Meteor 1-29 3.6 23:24:36 10° NNE 23:27:52 44° E 23:29:10 29° SSE
Cosmos 405 3.8 23:24:42 10° NNW 23:28:00 37° W 23:29:08 28° SW
Meteor 1-10 Rocket 4.2 23:26:30 10° NNW 23:32:08 86° WSW 23:35:50 22° S
Cosmos 1452 Rocket 4.5 23:27:59 10° NW 23:32:40 33° WSW 23:35:06 22° SSW
PSLV R/B 3.5 23:30:03 10° NNE 23:34:17 80° WNW 23:36:34 27° SSW
Meteor 2-6 Rocket 4.2 23:29:03 10° NNW 23:34:32 70° W 23:37:54 23° S
CZ-4C R/B 2.9 23:27:43 10° NW 23:34:46 79° SW 23:42:57 10° SE
Cosmos 389 Rocket 3.3 23:31:27 10° N 23:34:52 44° ENE 23:37:05 19° SE
COSMOS 2455 3.4 23:29:29 10° NW 23:35:07 42° WSW 23:38:24 23° S
Cosmos 1340 4.3 23:34:23 16° WSW 23:36:35 26° WNW 23:39:49 10° N
Cosmos 1110 Rocket 4.0 23:31:36 10° NNW 23:36:52 67° WSW 23:40:16 22° S
SL-16 R/B 3.2 23:32:14 10° SE 23:38:15 53° ENE 23:44:19 10° N
Cosmos 1603 3.8 23:36:25 24° SSW 23:39:56 67° ESE 23:45:38 10° NE
IRAS Rocket 4.4 23:37:09 14° SSE 23:41:52 72° ENE 23:47:21 10° NNW
Resurs 1-4 Rocket 3.4 23:39:59 10° NNE 23:44:44 32° E 23:48:45 13° SSE
Cosmos 2369 Rocket 2.5 23:40:11 10° NW 23:45:32 48° WSW 23:48:49 22° S
Cosmos 1666 Rocket 4.2 23:44:14 21° SSE 23:46:55 49° E 23:51:10 10° NNE
Cosmos 1500 Rocket 4.2 23:44:49 22° SW 23:47:21 46° WNW 23:51:36 10° N
Cosmos 44 4.2 23:43:53 10° WSW 23:48:00 40° NW 23:52:17 10° NNE
SeaSat 1 3.4 23:43:52 10° NE 23:48:26 36° ESE 23:51:20 19° SSE
ISS -2.3 23:51:00 22° SSE 23:51:05 22° SE 23:53:45 10° E
Helios 1B rocket 2.7 23:48:57 10° N 23:53:03 62° WNW 23:55:23 24° SW
ADEOS II 4.3 23:52:25 10° NE 23:55:50 17° E 23:59:15 10° SE
